Coldwater, MI

9:06 AM EDT on April 23, 2017 (GMT -0400)
Branch County Memorial

Weather History for KOEB - November, 2012

Change the Weather History Date:

Thursday, November 8, 2012

  Actual Average (KJYM) Record (KJYM)
Temperature  
Mean Temperature 37 °F -  
Max Temperature 50 °F 48 °F 64 °F (1975)
Min Temperature 24 °F 31 °F 7 °F (1991)
Degree Days  
Heating Degree Days 28    
Moisture  
Dew Point 30 °F    
Average Humidity 79    
Maximum Humidity 97    
Minimum Humidity 46    
Precipitation  
Precipitation 0.00 in - - ()
Sea Level Pressure  
Sea Level Pressure 30.16 in    
Wind  
Wind Speed 1 mph (WSW)    
Max Wind Speed 9 mph    
Max Gust Speed -    
Visibility 6 miles    
Events Fog    
Averages and records for this station are not official NWS values.
T = Trace of Precipitation, MM = Missing Value Source: NWS Daily Summary

Daily Weather History Graph

Daily Weather History Graph

Search for Another Location

Airport or City:

Trip Planner

Search our weather history database for the weather conditions in past years. The results will help you decide how hot, cold, wet, or windy it might be!

Date:

Astronomy

Nov. 08, 2012 Rise Set
Actual Time 7:21 AM EST 5:25 PM EST
Civil Twilight 6:52 AM EST 5:55 PM EST
Nautical Twilight 6:19 AM EST 6:28 PM EST
Astronomical Twilight 5:46 AM EST 7:01 PM EST
Moon 1:10 AM EST (11/8) 2:11 PM EST (11/8)
Length of Visible Light 11h 02m
Length of Day
10h 03m
Waning Crescent, 33% of the Moon is Illuminated
Nov 8
Waning Crescent
Nov 13
New
Nov 20
First Quarter
Nov 28
Full
Dec 6
Last Quarter

Hourly Weather History & Observations

Time (EST) Temp. Windchill Dew Point Humidity Pressure Visibility Wind Dir Wind Speed Gust Speed Precip Events Conditions
12:14 AM 29.1 °F - 26.6 °F 90% 30.14 in 7.0 mi Calm Calm - N/A   Clear
12:35 AM 29.1 °F - 26.8 °F 91% 30.13 in 7.0 mi Calm Calm - N/A   Clear
12:54 AM 29.8 °F - 27.7 °F 92% 30.14 in 7.0 mi Calm Calm - N/A   Clear
1:14 AM 29.1 °F - 27.0 °F 92% 30.14 in 7.0 mi Calm Calm - N/A   Clear
1:35 AM 27.7 °F - 26.1 °F 94% 30.13 in 5.0 mi Calm Calm - N/A   Clear
1:54 AM 28.2 °F - 26.8 °F 94% 30.14 in 5.0 mi Calm Calm - N/A   Clear
2:14 AM 27.9 °F - 26.4 °F 94% 30.14 in 5.0 mi Calm Calm - N/A   Clear
2:35 AM 27.3 °F - 26.1 °F 95% 30.14 in 4.0 mi Calm Calm - N/A   Clear
2:54 AM 27.3 °F - 26.1 °F 95% 30.15 in 5.0 mi Calm Calm - N/A   Clear
3:14 AM 27.0 °F - 25.5 °F 94% 30.15 in 5.0 mi Calm Calm - N/A   Clear
3:35 AM 27.0 °F - 25.5 °F 94% 30.14 in 4.0 mi Calm Calm - N/A   Clear
3:54 AM 26.6 °F - 25.3 °F 95% 30.15 in 4.0 mi Calm Calm - N/A   Clear
4:15 AM 25.7 °F - 24.6 °F 96% 30.16 in 3.0 mi Calm Calm - N/A   Clear
4:35 AM 26.6 °F - 25.7 °F 96% 30.16 in 2.5 mi Calm Calm - N/A   Clear
4:54 AM 25.9 °F - 24.8 °F 96% 30.16 in 3.0 mi Calm Calm - N/A   Clear
5:15 AM 26.2 °F - 24.8 °F 94% 30.16 in 4.0 mi Calm Calm - N/A   Clear
5:35 AM 25.3 °F - 23.9 °F 94% 30.16 in 5.0 mi Calm Calm - N/A   Clear
6:15 AM 25.2 °F - 23.7 °F 94% 30.17 in 4.0 mi Calm Calm - N/A   Clear
6:34 AM 25.2 °F - 23.7 °F 94% 30.18 in 4.0 mi Calm Calm - N/A   Clear
6:54 AM 24.8 °F - 23.4 °F 94% 30.18 in 4.0 mi Calm Calm - N/A   Clear
7:15 AM 25.0 °F - 23.5 °F 94% 30.18 in 4.0 mi Calm Calm - N/A   Clear
7:54 AM 25.3 °F - 23.9 °F 94% 30.19 in 2.5 mi Calm Calm - N/A   Clear
8:15 AM 26.2 °F - 25.2 °F 96% 30.20 in 0.5 mi Calm Calm - N/A Fog Light Freezing Fog
8:34 AM 28.8 °F - 28.0 °F 97% 30.20 in 1.5 mi Calm Calm - N/A   Mostly Cloudy
8:54 AM 30.9 °F - 30.0 °F 96% 30.20 in 2.0 mi Calm Calm - N/A   Clear
9:15 AM 33.1 °F - 31.5 °F 94% 30.21 in 3.0 mi Calm Calm - N/A   Clear
9:34 AM 37.4 °F - 32.9 °F 84% 30.21 in 4.0 mi Calm Calm - N/A   Clear
9:54 AM 39.4 °F - 33.4 °F 79% 30.21 in 5.0 mi Calm Calm - N/A   Haze
10:15 AM 41.0 °F - 34.5 °F 78% 30.20 in 7.0 mi Calm Calm - N/A   Clear
10:34 AM 42.3 °F - 33.6 °F 71% 30.20 in 7.0 mi Calm Calm - N/A   Clear
10:55 AM 45.1 °F - 33.4 °F 64% 30.20 in 7.0 mi Calm Calm - N/A   Clear
11:34 AM 45.0 °F - 31.1 °F 58% 30.20 in 10.0 mi Calm Calm - N/A   Clear
11:55 AM 46.8 °F - 31.6 °F 56% 30.19 in 10.0 mi Calm Calm - N/A   Clear
12:14 PM 47.3 °F - 31.8 °F 55% 30.18 in 10.0 mi Calm Calm - N/A   Clear
12:34 PM 48.9 °F - 31.8 °F 52% 30.17 in 10.0 mi West 3.5 mph - N/A   Clear
12:55 PM 50.2 °F - 31.5 °F 49% 30.16 in 10.0 mi West 4.6 mph - N/A   Scattered Clouds
1:14 PM 50.4 °F - 31.5 °F 48% 30.16 in 10.0 mi West 9.2 mph - N/A   Mostly Cloudy
1:34 PM 50.2 °F - 30.2 °F 46% 30.16 in 10.0 mi West 8.1 mph - N/A   Mostly Cloudy
1:55 PM 49.1 °F - 30.7 °F 49% 30.16 in 10.0 mi West 5.8 mph - N/A   Overcast
2:14 PM 49.1 °F - 31.1 °F 50% 30.15 in 10.0 mi WNW 5.8 mph - N/A   Overcast
2:34 PM 48.2 °F - 31.5 °F 52% 30.15 in 10.0 mi West 6.9 mph - N/A   Overcast
2:55 PM 48.2 °F - 30.9 °F 51% 30.14 in 10.0 mi WNW 5.8 mph - N/A   Overcast
3:14 PM 48.0 °F - 31.3 °F 52% 30.14 in 10.0 mi North - - N/A   Overcast
3:34 PM 47.7 °F - 31.3 °F 53% 30.14 in 10.0 mi WNW 5.8 mph - N/A   Overcast
3:54 PM 47.3 °F - 31.8 °F 55% 30.14 in 10.0 mi WNW 4.6 mph - N/A   Overcast
4:14 PM 46.9 °F - 31.8 °F 56% 30.14 in 10.0 mi West 6.9 mph - N/A   Overcast
4:35 PM 46.0 °F 43.9 °F 32.7 °F 60% 30.14 in 10.0 mi West 4.6 mph - N/A   Overcast
4:54 PM 45.9 °F 43.6 °F 32.5 °F 60% 30.14 in 10.0 mi WSW 4.6 mph - N/A   Overcast
5:14 PM 45.3 °F 42.3 °F 33.1 °F 62% 30.14 in 7.0 mi WSW 5.8 mph - N/A   Overcast
5:35 PM 44.6 °F - 33.3 °F 64% 30.13 in 7.0 mi Calm Calm - N/A   Overcast
5:54 PM 42.4 °F - 32.5 °F 68% 30.13 in 10.0 mi Calm Calm - N/A   Mostly Cloudy
6:15 PM 41.2 °F 39.2 °F 32.0 °F 70% 30.14 in 10.0 mi WSW 3.5 mph - N/A   Scattered Clouds
6:35 PM 39.6 °F 37.4 °F 32.0 °F 74% 30.14 in 7.0 mi SW 3.5 mph - N/A   Clear
6:54 PM 38.5 °F 36.1 °F 32.0 °F 78% 30.14 in 7.0 mi WSW 3.5 mph - N/A   Clear
7:15 PM 37.4 °F 34.9 °F 32.0 °F 81% 30.15 in 7.0 mi WSW 3.5 mph - N/A   Clear
7:34 PM 37.9 °F 35.5 °F 32.2 °F 80% 30.15 in 7.0 mi SW 3.5 mph - N/A   Clear
7:55 PM 38.1 °F 35.7 °F 32.4 °F 80% 30.14 in 7.0 mi SSW 3.5 mph - N/A   Clear
8:14 PM 36.3 °F 31.6 °F 32.4 °F 86% 30.14 in 5.0 mi SSW 5.8 mph - N/A   Clear
8:34 PM 36.9 °F 32.2 °F 32.0 °F 83% 30.13 in 7.0 mi SSW 5.8 mph - N/A   Clear
8:55 PM 37.2 °F 33.6 °F 32.2 °F 82% 30.13 in 7.0 mi SSW 4.6 mph - N/A   Clear
9:14 PM 36.3 °F 32.5 °F 32.0 °F 84% 30.13 in 5.0 mi SSW 4.6 mph - N/A   Clear
9:34 PM 35.6 °F 30.7 °F 32.0 °F 87% 30.13 in 5.0 mi SSW 5.8 mph - N/A   Clear
9:55 PM 35.2 °F 31.2 °F 32.0 °F 88% 30.13 in 5.0 mi SW 4.6 mph - N/A   Clear
10:14 PM 35.6 °F 31.7 °F 32.0 °F 87% 30.14 in 5.0 mi SW 4.6 mph - N/A   Clear
10:34 PM 35.2 °F 31.2 °F 32.0 °F 88% 30.13 in 5.0 mi SSW 4.6 mph - N/A   Clear
10:55 PM 34.3 °F 30.2 °F 31.8 °F 90% 30.13 in 5.0 mi SW 4.6 mph - N/A   Clear
11:14 PM 32.4 °F - 30.2 °F 92% 30.13 in 4.0 mi Calm Calm - N/A   Scattered Clouds
11:35 PM 32.9 °F - 31.5 °F 94% 30.13 in 4.0 mi Calm Calm - N/A   Mostly Cloudy
11:55 PM 32.0 °F - 29.8 °F 92% 30.13 in 4.0 mi Calm Calm - N/A   Scattered Clouds